TimeEDT,TemperatureF,Dew PointF,Humidity,Sea Level PressureIn,VisibilityMPH,Wind Direction,Wind SpeedMPH,Gust SpeedMPH,PrecipitationIn,Events,Conditions,WindDirDegrees,DateUTC
12:53 AM,75.0,66.9,76,30.09,10.0,East,11.5,-,N/A,,Clear,100,2013-04-09 04:53:00
1:53 AM,75.0,66.9,76,30.07,10.0,East,13.8,-,N/A,,Clear,100,2013-04-09 05:53:00
2:53 AM,73.9,66.9,79,30.05,10.0,East,12.7,-,N/A,,Clear,90,2013-04-09 06:53:00
3:29 AM,75.2,68.0,78,30.04,10.0,East,12.7,-,N/A,,Mostly Cloudy,90,2013-04-09 07:29:00
3:39 AM,73.4,68.0,83,30.04,10.0,East,10.4,-,N/A,,Scattered Clouds,90,2013-04-09 07:39:00
3:53 AM,73.9,68.0,82,30.04,10.0,East,10.4,-,N/A,,Scattered Clouds,90,2013-04-09 07:53:00
4:53 AM,73.9,68.0,82,30.04,10.0,East,11.5,-,N/A,,Clear,90,2013-04-09 08:53:00
5:53 AM,73.9,68.0,82,30.04,10.0,East,11.5,-,N/A,,Clear,90,2013-04-09 09:53:00
6:53 AM,73.9,69.1,85,30.04,10.0,East,9.2,-,N/A,,Clear,90,2013-04-09 10:53:00
7:53 AM,75.9,70.0,82,30.06,10.0,East,10.4,-,N/A,,Scattered Clouds,80,2013-04-09 11:53:00
8:53 AM,78.1,70.0,76,30.08,10.0,East,11.5,-,N/A,,Scattered Clouds,100,2013-04-09 12:53:00
9:53 AM,80.1,69.1,69,30.10,10.0,East,15.0,-,N/A,,Scattered Clouds,90,2013-04-09 13:53:00
10:53 AM,82.0,70.0,67,30.11,10.0,East,15.0,-,N/A,,Mostly Cloudy,100,2013-04-09 14:53:00
11:53 AM,82.0,71.1,69,30.11,10.0,East,15.0,21.9,N/A,,Mostly Cloudy,100,2013-04-09 15:53:00
12:53 PM,81.0,70.0,69,30.10,10.0,East,15.0,-,N/A,,Mostly Cloudy,100,2013-04-09 16:53:00
1:53 PM,82.9,71.1,67,30.08,10.0,East,16.1,-,N/A,,Mostly Cloudy,90,2013-04-09 17:53:00
2:53 PM,82.9,71.1,67,30.07,10.0,East,16.1,-,N/A,,Mostly Cloudy,100,2013-04-09 18:53:00
3:53 PM,82.9,72.0,69,30.05,10.0,East,18.4,23.0,N/A,,Mostly Cloudy,80,2013-04-09 19:53:00
4:53 PM,82.0,71.1,69,30.04,10.0,East,17.3,24.2,N/A,,Mostly Cloudy,100,2013-04-09 20:53:00
5:53 PM,81.0,71.1,72,30.04,10.0,East,19.6,24.2,N/A,,Mostly Cloudy,90,2013-04-09 21:53:00
6:53 PM,78.1,70.0,76,30.03,10.0,East,19.6,-,N/A,,Scattered Clouds,90,2013-04-09 22:53:00
7:53 PM,77.0,70.0,79,30.03,10.0,East,18.4,25.3,N/A,,Partly Cloudy,80,2013-04-09 23:53:00
8:53 PM,75.9,69.1,79,30.05,10.0,East,17.3,-,N/A,,Partly Cloudy,80,2013-04-10 00:53:00
9:53 PM,75.9,70.0,82,30.07,10.0,East,15.0,23.0,N/A,,Partly Cloudy,90,2013-04-10 01:53:00
10:53 PM,75.9,70.0,82,30.08,10.0,East,19.6,-,N/A,,Scattered Clouds,90,2013-04-10 02:53:00
11:08 PM,75.2,69.8,83,30.09,10.0,East,17.3,-,N/A,,Mostly Cloudy,90,2013-04-10 03:08:00
11:32 PM,75.2,69.8,83,30.08,10.0,East,17.3,-,N/A,,Scattered Clouds,90,2013-04-10 03:32:00
11:53 PM,75.9,70.0,82,30.08,10.0,East,15.0,-,N/A,,Partly Cloudy,90,2013-04-10 03:53:00